Time,TemperatureF,DewpointF,PressureIn,WindDirection,WindDirectionDegrees,WindSpeedMPH,WindSpeedGustMPH,Humidity,HourlyPrecipIn,Conditions,Clouds,dailyrainin,SoftwareType,DateUTC
2013-01-03 00:02:00,6.0,3.0,-100.00,NW,310,17.0,22.0,84,0.00,,,0.00,,2013-01-03 06:02:00,
2013-01-03 00:12:00,6.0,3.0,-100.00,NW,315,16.0,22.0,84,0.00,,,0.00,,2013-01-03 06:12:00,
2013-01-03 00:22:00,6.0,3.0,-100.00,NW,320,16.0,23.0,84,0.00,,,0.00,,2013-01-03 06:22:00,
2013-01-03 00:32:00,6.0,1.0,-100.00,NW,315,16.0,22.0,84,0.00,,,0.00,,2013-01-03 06:32:00,
2013-01-03 00:42:00,5.0,1.0,-100.00,NW,320,16.0,20.0,84,0.00,,,0.00,,2013-01-03 06:42:00,
2013-01-03 00:52:00,5.0,1.0,-100.00,NW,320,16.0,24.0,84,0.00,,,0.00,,2013-01-03 06:52:00,
2013-01-03 01:02:00,5.0,1.0,-100.00,NW,320,14.0,18.0,84,0.00,,,0.00,,2013-01-03 07:02:00,
2013-01-03 01:12:00,5.0,1.0,-100.00,NW,315,16.0,20.0,84,0.00,,,0.00,,2013-01-03 07:12:00,
2013-01-03 01:22:00,5.0,1.0,-100.00,NW,325,14.0,19.0,84,0.00,,,0.00,,2013-01-03 07:22:00,
2013-01-03 01:32:00,5.0,1.0,-100.00,NW,315,17.0,21.0,84,0.00,,,0.00,,2013-01-03 07:32:00,
2013-01-03 01:42:00,5.0,1.0,-100.00,NW,315,14.0,19.0,84,0.00,,,0.00,,2013-01-03 07:42:00,
2013-01-03 01:52:00,4.0,1.0,-100.00,NW,310,16.0,20.0,84,0.00,,,0.00,,2013-01-03 07:52:00,
2013-01-03 02:02:00,4.0,1.0,-100.00,NW,320,12.0,19.0,84,0.00,,,0.00,,2013-01-03 08:02:00,
2013-01-03 02:12:00,4.0,1.0,-100.00,NW,315,12.0,20.0,84,0.00,,,0.00,,2013-01-03 08:12:00,
2013-01-03 02:22:00,4.0,1.0,-100.00,NW,315,13.0,22.0,84,0.00,,,0.00,,2013-01-03 08:22:00,
2013-01-03 02:32:00,4.0,1.0,-100.00,NW,310,14.0,19.0,84,0.00,,,0.00,,2013-01-03 08:32:00,
2013-01-03 02:42:00,4.0,0.0,-100.00,NW,315,11.0,18.0,84,0.00,,,0.00,,2013-01-03 08:42:00,
2013-01-03 02:52:00,4.0,0.0,-100.00,NW,310,10.0,17.0,84,0.00,,,0.00,,2013-01-03 08:52:00,
2013-01-03 03:02:00,4.0,0.0,-100.00,NW,320,10.0,13.0,84,0.00,,,0.00,,2013-01-03 09:02:00,
2013-01-03 03:12:00,3.0,0.0,-100.00,NW,310,9.0,15.0,84,0.00,,,0.00,,2013-01-03 09:12:00,
2013-01-03 03:22:00,3.0,0.0,-100.00,NW,305,10.0,17.0,84,0.00,,,0.00,,2013-01-03 09:22:00,
2013-01-03 03:33:00,3.0,0.0,-100.00,NW,315,11.0,14.0,84,0.00,,,0.00,,2013-01-03 09:33:00,
2013-01-03 03:42:00,3.0,0.0,-100.00,NW,320,9.0,14.0,84,0.00,,,0.00,,2013-01-03 09:42:00,
2013-01-03 03:52:00,3.0,0.0,-100.00,NW,325,9.0,14.0,84,0.00,,,0.00,,2013-01-03 09:52:00,
2013-01-03 04:02:00,3.0,0.0,-100.00,NW,320,11.0,16.0,84,0.00,,,0.00,,2013-01-03 10:02:00,
2013-01-03 04:12:00,2.0,0.0,-100.00,NW,325,11.0,14.0,84,0.00,,,0.00,,2013-01-03 10:12:00,
2013-01-03 04:22:00,2.0,0.0,-100.00,NW,320,14.0,17.0,84,0.00,,,0.00,,2013-01-03 10:22:00,
2013-01-03 04:32:00,2.0,-2.0,-100.00,NW,320,14.0,21.0,84,0.00,,,0.00,,2013-01-03 10:32:00,
2013-01-03 04:42:00,2.0,-2.0,-100.00,NNW,330,15.0,20.0,84,0.00,,,0.00,,2013-01-03 10:42:00,
2013-01-03 04:52:00,2.0,-2.0,-100.00,NW,325,13.0,19.0,84,0.00,,,0.00,,2013-01-03 10:52:00,
2013-01-03 05:02:00,2.0,-2.0,-100.00,NW,320,14.0,17.0,84,0.00,,,0.00,,2013-01-03 11:02:00,
2013-01-03 05:12:00,2.0,-2.0,-100.00,NW,325,13.0,19.0,84,0.00,,,0.00,,2013-01-03 11:12:00,
2013-01-03 05:22:00,2.0,-2.0,-100.00,NW,325,12.0,19.0,84,0.00,,,0.00,,2013-01-03 11:22:00,
2013-01-03 05:33:00,2.0,-2.0,-100.00,NW,320,14.0,19.0,84,0.00,,,0.00,,2013-01-03 11:33:00,
2013-01-03 05:42:00,2.0,-2.0,-100.00,NNW,330,12.0,19.0,84,0.00,,,0.00,,2013-01-03 11:42:00,
2013-01-03 05:52:00,2.0,-2.0,-100.00,NW,325,12.0,16.0,84,0.00,,,0.00,,2013-01-03 11:52:00,
2013-01-03 06:02:00,2.0,-2.0,-100.00,NNW,330,10.0,15.0,84,0.00,,,0.00,,2013-01-03 12:02:00,
2013-01-03 06:12:00,2.0,-2.0,-100.00,NW,320,11.0,16.0,84,0.00,,,0.00,,2013-01-03 12:12:00,
2013-01-03 06:22:00,2.0,-2.0,-100.00,NNW,330,13.0,16.0,84,0.00,,,0.00,,2013-01-03 12:22:00,
2013-01-03 06:32:00,2.0,-2.0,-100.00,NW,325,12.0,16.0,84,0.00,,,0.00,,2013-01-03 12:32:00,
2013-01-03 06:42:00,1.0,-2.0,-100.00,NW,320,12.0,16.0,84,0.00,,,0.00,,2013-01-03 12:42:00,
2013-01-03 06:52:00,1.0,-2.0,-100.00,NNW,330,10.0,13.0,85,0.00,,,0.00,,2013-01-03 12:52:00,
2013-01-03 07:02:00,1.0,-2.0,-100.00,NW,320,9.0,13.0,85,0.00,,,0.00,,2013-01-03 13:02:00,
2013-01-03 07:12:00,1.0,-2.0,-100.00,NW,320,10.0,13.0,85,0.00,,,0.00,,2013-01-03 13:12:00,
2013-01-03 07:22:00,0.0,-2.0,-100.00,NW,320,11.0,13.0,85,0.00,,,0.00,,2013-01-03 13:22:00,
2013-01-03 07:32:00,0.0,-4.0,-100.00,NW,315,11.0,12.0,85,0.00,,,0.00,,2013-01-03 13:32:00,
2013-01-03 07:42:00,0.0,-4.0,-100.00,NW,320,11.0,13.0,85,0.00,,,0.00,,2013-01-03 13:42:00,
2013-01-03 07:52:00,0.0,-4.0,-100.00,NW,315,11.0,15.0,86,0.00,,,0.00,,2013-01-03 13:52:00,
2013-01-03 08:03:00,0.0,-4.0,-100.00,NW,320,10.0,14.0,86,0.00,,,0.00,,2013-01-03 14:03:00,
2013-01-03 08:12:00,0.0,-4.0,-100.00,NW,315,11.0,13.0,86,0.00,,,0.00,,2013-01-03 14:12:00,
2013-01-03 08:22:00,0.0,-4.0,-100.00,NW,315,9.0,12.0,86,0.00,,,0.00,,2013-01-03 14:22:00,
2013-01-03 08:32:00,0.0,-4.0,-100.00,NW,320,9.0,12.0,86,0.00,,,0.00,,2013-01-03 14:32:00,
2013-01-03 08:42:00,0.0,-2.0,-100.00,NW,325,9.0,11.0,86,0.00,,,0.00,,2013-01-03 14:42:00,
2013-01-03 08:53:00,0.0,-2.0,-100.00,NW,325,8.0,11.0,86,0.00,,,0.00,,2013-01-03 14:53:00,
2013-01-03 09:03:00,1.0,-2.0,-100.00,NW,320,9.0,10.0,86,0.00,,,0.00,,2013-01-03 15:03:00,
2013-01-03 09:12:00,1.0,-2.0,-100.00,NW,325,8.0,9.0,86,0.00,,,0.00,,2013-01-03 15:12:00,
2013-01-03 09:22:00,2.0,-2.0,-100.00,NW,315,7.0,11.0,85,0.00,,,0.00,,2013-01-03 15:22:00,
2013-01-03 09:33:00,2.0,0.0,-100.00,NW,305,6.0,11.0,84,0.00,,,0.00,,2013-01-03 15:33:00,
2013-01-03 09:42:00,3.0,0.0,-100.00,NW,315,8.0,9.0,82,0.00,,,0.00,,2013-01-03 15:42:00,
2013-01-03 09:53:00,3.0,0.0,-100.00,NW,320,9.0,11.0,81,0.00,,,0.00,,2013-01-03 15:53:00,
2013-01-03 10:03:00,4.0,0.0,-100.00,NW,320,7.0,11.0,80,0.00,,,0.00,,2013-01-03 16:03:00,
2013-01-03 10:12:00,4.0,-2.0,-100.00,NNW,330,7.0,9.0,79,0.00,,,0.00,,2013-01-03 16:12:00,
2013-01-03 10:22:00,4.0,0.0,-100.00,NW,325,9.0,10.0,79,0.00,,,0.00,,2013-01-03 16:22:00,
2013-01-03 10:33:00,5.0,0.0,-100.00,NW,325,4.0,9.0,79,0.00,,,0.00,,2013-01-03 16:33:00,
2013-01-03 10:43:00,7.0,1.0,-100.00,WNW,295,3.0,7.0,78,0.00,,,0.00,,2013-01-03 16:43:00,
2013-01-03 10:52:00,9.0,3.0,-100.00,NW,320,4.0,6.0,74,0.00,,,0.00,,2013-01-03 16:52:00,
2013-01-03 11:03:00,9.0,1.0,-100.00,NW,305,6.0,9.0,71,0.00,,,0.00,,2013-01-03 17:03:00,
2013-01-03 11:12:00,9.0,1.0,-100.00,WNW,290,7.0,9.0,71,0.00,,,0.00,,2013-01-03 17:12:00,
2013-01-03 11:22:00,10.0,3.0,-100.00,West,275,3.0,8.0,71,0.00,,,0.00,,2013-01-03 17:22:00,
2013-01-03 11:33:00,9.0,1.0,-100.00,WSW,250,4.0,6.0,70,0.00,,,0.00,,2013-01-03 17:33:00,
2013-01-03 11:42:00,9.0,1.0,-100.00,WSW,250,4.0,5.0,72,0.00,,,0.00,,2013-01-03 17:42:00,
2013-01-03 11:52:00,10.0,3.0,-100.00,SW,235,4.0,5.0,71,0.00,,,0.00,,2013-01-03 17:52:00,
2013-01-03 12:03:00,10.0,3.0,-100.00,WSW,245,5.0,7.0,72,0.00,,,0.00,,2013-01-03 18:03:00,
2013-01-03 12:13:00,9.0,1.0,-100.00,WSW,250,7.0,9.0,73,0.00,,,0.00,,2013-01-03 18:13:00,
2013-01-03 12:22:00,8.0,1.0,-100.00,SW,235,7.0,9.0,74,0.00,,,0.00,,2013-01-03 18:22:00,
2013-01-03 12:33:00,9.0,3.0,-100.00,SSW,210,6.0,9.0,74,0.00,,,0.00,,2013-01-03 18:33:00,
2013-01-03 12:42:00,9.0,3.0,-100.00,SW,215,6.0,9.0,74,0.00,,,0.00,,2013-01-03 18:42:00,
2013-01-03 12:53:00,10.0,3.0,-100.00,SSW,210,4.0,6.0,73,0.00,,,0.00,,2013-01-03 18:53:00,
2013-01-03 13:03:00,10.0,3.0,-100.00,WSW,240,7.0,10.0,73,0.00,,,0.00,,2013-01-03 19:03:00,
2013-01-03 13:12:00,10.0,3.0,-100.00,SW,225,7.0,10.0,73,0.00,,,0.00,,2013-01-03 19:12:00,
2013-01-03 13:55:00,11.0,5.0,-100.00,WSW,245,4.0,7.0,76,0.00,,,0.00,,2013-01-03 19:55:00,
2013-01-03 14:03:00,12.0,7.0,-100.00,SSW,210,4.0,7.0,76,0.00,,,0.00,,2013-01-03 20:03:00,
2013-01-03 14:12:00,11.0,5.0,-100.00,South,185,8.0,9.0,77,0.00,,,0.00,,2013-01-03 20:12:00,
2013-01-03 14:22:00,10.0,5.0,-100.00,South,190,7.0,9.0,78,0.00,,,0.00,,2013-01-03 20:22:00,
2013-01-03 14:33:00,11.0,5.0,-100.00,South,185,8.0,9.0,79,0.00,,,0.00,,2013-01-03 20:33:00,
2013-01-03 14:42:00,11.0,7.0,-100.00,South,185,7.0,9.0,79,0.00,,,0.00,,2013-01-03 20:42:00,
2013-01-03 14:53:00,11.0,7.0,-100.00,South,185,8.0,10.0,78,0.00,,,0.00,,2013-01-03 20:53:00,
2013-01-03 15:02:00,11.0,7.0,-100.00,South,185,9.0,10.0,78,0.00,,,0.00,,2013-01-03 21:02:00,
2013-01-03 15:12:00,12.0,7.0,-100.00,South,185,10.0,11.0,78,0.00,,,0.00,,2013-01-03 21:12:00,
2013-01-03 15:22:00,12.0,7.0,-100.00,South,185,10.0,12.0,78,0.00,,,0.00,,2013-01-03 21:22:00,
2013-01-03 15:35:00,12.0,7.0,-100.00,South,190,9.0,11.0,78,0.00,,,0.00,,2013-01-03 21:35:00,
2013-01-03 15:47:00,13.0,7.0,-100.00,South,185,9.0,10.0,78,0.00,,,0.00,,2013-01-03 21:47:00,
2013-01-03 15:52:00,13.0,7.0,-100.00,South,190,9.0,9.0,78,0.00,,,0.00,,2013-01-03 21:52:00,
2013-01-03 16:02:00,13.0,7.0,-100.00,South,180,8.0,10.0,78,0.00,,,0.00,,2013-01-03 22:02:00,
2013-01-03 16:12:00,13.0,7.0,-100.00,South,185,9.0,10.0,78,0.00,,,0.00,,2013-01-03 22:12:00,
2013-01-03 16:22:00,12.0,7.0,-100.00,South,190,7.0,9.0,78,0.00,,,0.00,,2013-01-03 22:22:00,
2013-01-03 16:33:00,12.0,7.0,-100.00,South,185,9.0,9.0,78,0.00,,,0.00,,2013-01-03 22:33:00,
2013-01-03 16:42:00,12.0,7.0,-100.00,South,185,9.0,9.0,79,0.00,,,0.00,,2013-01-03 22:42:00,
2013-01-03 16:52:00,12.0,7.0,-100.00,South,180,9.0,10.0,80,0.00,,,0.00,,2013-01-03 22:52:00,
2013-01-03 17:02:00,13.0,7.0,-100.00,South,180,8.0,10.0,80,0.00,,,0.00,,2013-01-03 23:02:00,
2013-01-03 17:12:00,12.0,7.0,-100.00,South,185,9.0,10.0,80,0.00,,,0.00,,2013-01-03 23:12:00,
2013-01-03 17:22:00,12.0,7.0,-100.00,South,190,9.0,11.0,82,0.00,,,0.00,,2013-01-03 23:22:00,
2013-01-03 17:32:00,12.0,9.0,-100.00,SSW,195,9.0,11.0,83,0.00,,,0.00,,2013-01-03 23:32:00,
2013-01-03 17:42:00,12.0,9.0,-100.00,SSW,195,9.0,11.0,84,0.00,,,0.00,,2013-01-03 23:42:00,
2013-01-03 17:52:00,12.0,9.0,-100.00,SSW,200,9.0,11.0,85,0.00,,,0.00,,2013-01-03 23:52:00,
2013-01-03 18:03:00,12.0,9.0,-100.00,SSW,195,11.0,12.0,86,0.00,,,0.00,,2013-01-04 00:03:00,
2013-01-03 18:12:00,13.0,9.0,-100.00,SSW,195,11.0,13.0,86,0.00,,,0.00,,2013-01-04 00:12:00,
2013-01-03 18:22:00,13.0,10.0,-100.00,SSW,205,10.0,14.0,86,0.00,,,0.00,,2013-01-04 00:22:00,
2013-01-03 18:32:00,13.0,10.0,-100.00,SSW,200,10.0,14.0,87,0.00,,,0.00,,2013-01-04 00:32:00,
2013-01-03 18:42:00,12.0,9.0,-100.00,SSW,205,10.0,13.0,87,0.00,,,0.00,,2013-01-04 00:42:00,
2013-01-03 18:52:00,12.0,9.0,-100.00,SSW,205,11.0,14.0,87,0.00,,,0.00,,2013-01-04 00:52:00,
2013-01-03 19:02:00,12.0,9.0,-100.00,SSW,200,11.0,13.0,88,0.00,,,0.00,,2013-01-04 01:02:00,
2013-01-03 19:12:00,12.0,10.0,-100.00,SSW,200,11.0,13.0,88,0.00,,,0.00,,2013-01-04 01:12:00,
2013-01-03 19:22:00,13.0,10.0,-100.00,SSW,205,9.0,14.0,88,0.00,,,0.00,,2013-01-04 01:22:00,
2013-01-03 19:32:00,13.0,10.0,-100.00,SSW,200,10.0,12.0,88,0.00,,,0.00,,2013-01-04 01:32:00,
2013-01-03 19:42:00,13.0,10.0,-100.00,SSW,200,11.0,12.0,88,0.00,,,0.00,,2013-01-04 01:42:00,
2013-01-03 19:52:00,13.0,10.0,-100.00,SSW,200,11.0,14.0,89,0.00,,,0.00,,2013-01-04 01:52:00,
2013-01-03 20:02:00,13.0,10.0,-100.00,SSW,200,11.0,14.0,89,0.00,,,0.00,,2013-01-04 02:02:00,
2013-01-03 20:12:00,13.0,10.0,-100.00,SSW,205,11.0,14.0,89,0.00,,,0.00,,2013-01-04 02:12:00,
2013-01-03 20:22:00,13.0,10.0,-100.00,SSW,195,11.0,14.0,89,0.00,,,0.00,,2013-01-04 02:22:00,
2013-01-03 20:32:00,13.0,10.0,-100.00,SSW,200,10.0,13.0,89,0.00,,,0.00,,2013-01-04 02:32:00,
2013-01-03 20:42:00,12.0,10.0,-100.00,SSW,195,11.0,12.0,89,0.00,,,0.00,,2013-01-04 02:42:00,
2013-01-03 20:52:00,12.0,10.0,-100.00,SSW,195,11.0,13.0,89,0.00,,,0.00,,2013-01-04 02:52:00,
2013-01-03 21:02:00,13.0,10.0,-100.00,South,190,12.0,15.0,89,0.00,,,0.00,,2013-01-04 03:02:00,
2013-01-03 21:12:00,13.0,10.0,-100.00,SSW,195,12.0,14.0,89,0.00,,,0.00,,2013-01-04 03:12:00,
2013-01-03 21:22:00,14.0,12.0,-100.00,SSW,205,12.0,15.0,89,0.00,,,0.00,,2013-01-04 03:22:00,
2013-01-03 21:32:00,14.0,10.0,-100.00,SSW,200,11.0,13.0,88,0.00,,,0.00,,2013-01-04 03:32:00,
2013-01-03 21:42:00,13.0,10.0,-100.00,SSW,200,11.0,13.0,88,0.00,,,0.00,,2013-01-04 03:42:00,
2013-01-03 21:52:00,13.0,10.0,-100.00,SSW,200,11.0,12.0,88,0.00,,,0.00,,2013-01-04 03:52:00,
2013-01-03 22:02:00,14.0,10.0,-100.00,SSW,195,12.0,14.0,88,0.00,,,0.00,,2013-01-04 04:02:00,
2013-01-03 22:12:00,13.0,10.0,-100.00,South,190,12.0,14.0,88,0.00,,,0.00,,2013-01-04 04:12:00,
2013-01-03 22:22:00,13.0,10.0,-100.00,South,190,13.0,14.0,88,0.00,,,0.00,,2013-01-04 04:22:00,
2013-01-03 22:32:00,14.0,12.0,-100.00,South,190,14.0,16.0,88,0.00,,,0.00,,2013-01-04 04:32:00,
2013-01-03 22:42:00,14.0,12.0,-100.00,South,190,14.0,17.0,88,0.00,,,0.00,,2013-01-04 04:42:00,
2013-01-03 22:52:00,14.0,12.0,-100.00,South,185,16.0,18.0,88,0.00,,,0.00,,2013-01-04 04:52:00,
2013-01-03 23:03:00,14.0,12.0,-100.00,South,190,14.0,17.0,88,0.00,,,0.00,,2013-01-04 05:03:00,
2013-01-03 23:12:00,14.0,12.0,-100.00,South,190,15.0,17.0,88,0.00,,,0.00,,2013-01-04 05:12:00,
2013-01-03 23:22:00,14.0,12.0,-100.00,South,190,14.0,17.0,88,0.00,,,0.00,,2013-01-04 05:22:00,
2013-01-03 23:33:00,14.0,12.0,-100.00,South,190,12.0,15.0,88,0.00,,,0.00,,2013-01-04 05:33:00,
2013-01-03 23:42:00,14.0,10.0,-100.00,South,190,13.0,15.0,88,0.00,,,0.00,,2013-01-04 05:42:00,
2013-01-03 23:52:00,14.0,12.0,-100.00,South,190,13.0,17.0,87,0.00,,,0.00,,2013-01-04 05:52:00,